Location: Helsinki
(60.1699°N, 24.9384°E)
Time: 23:11:12
(UTC+03:00)

Transit 2A - All Passes

Search period start: 02 October 2022 00:00
Search period end: 12 October 2022 00:00
Orbit: 601 x 956 km, 66.7° (Epoch: 02 October)

Date Brightness Start Highest point End Pass type
(mag) Time Alt. Az. Time Alt. Az. Time Alt. Az.
02 Oct - 00:50:40 10° S 00:54:32 32° ESE 00:58:26 10° ENE visible
02 Oct - 02:33:01 10° WSW 02:37:23 73° NW 02:41:49 10° NE visible
02 Oct - 04:16:59 10° WNW 04:21:04 37° N 04:25:17 10° ENE visible
02 Oct - 06:00:48 10° NW 06:05:00 41° NNE 06:09:26 10° E visible
02 Oct - 07:44:01 10° NW 07:48:31 88° SW 07:53:22 10° SE daylight
02 Oct - 09:27:29 10° WNW 09:31:13 25° WSW 09:35:12 10° S daylight
03 Oct - 00:16:48 10° S 00:20:20 24° ESE 00:23:51 10° ENE visible
03 Oct - 01:58:36 10° SW 02:02:58 89° NW 02:07:25 10° NE visible
03 Oct - 03:42:23 10° W 03:46:32 40° NNW 03:50:47 10° ENE visible
03 Oct - 05:26:20 10° WNW 05:30:28 38° NNE 05:34:50 10° E visible
03 Oct - 07:09:38 10° NW 07:14:07 77° NE 07:18:56 10° ESE daylight
03 Oct - 08:52:55 10° WNW 08:57:00 32° WSW 09:01:20 10° S daylight
03 Oct - 23:43:10 10° SSE 23:46:10 18° ESE 23:49:09 10° ENE visible
04 Oct - 01:24:15 10° SW 01:28:36 73° SE 01:33:00 10° NE visible
04 Oct - 03:07:49 10° W 03:12:00 44° NNW 03:16:19 10° NE visible
04 Oct - 04:51:50 10° WNW 04:55:56 37° N 05:00:14 10° ENE visible
04 Oct - 06:35:14 10° NW 06:39:41 64° NNE 06:44:27 10° ESE visible
04 Oct - 08:18:26 10° WNW 08:22:44 42° SW 08:27:20 10° SSE daylight
04 Oct - 10:04:16 10° W 10:04:50 10° WSW 10:05:24 10° WSW daylight
04 Oct - 23:09:53 10° SE 23:12:03 14° ESE 23:14:11 10° E night (unlit)
05 Oct - 00:50:00 10° SSW 00:54:16 57° SE 00:58:35 10° NE visible
05 Oct - 02:33:15 10° W 02:37:30 50° NNW 02:41:52 10° NE visible
05 Oct - 04:17:18 10° WNW 04:21:23 36° N 04:25:38 10° ENE visible
05 Oct - 06:00:50 10° NW 06:05:13 54° NNE 06:09:54 10° ESE visible
05 Oct - 07:44:00 10° NW 07:48:25 54° SW 07:53:12 10° SSE daylight
05 Oct - 09:28:18 10° W 09:30:44 14° WSW 09:33:16 10° SW daylight
06 Oct - 00:15:50 10° SSW 00:19:58 43° SE 00:24:08 10° ENE visible
06 Oct - 01:58:43 10° WSW 02:03:01 59° NNW 02:07:26 10° NE visible
06 Oct - 03:42:45 10° WNW 03:46:49 36° N 03:51:04 10° ENE visible
06 Oct - 05:26:25 10° NW 05:30:44 47° NNE 05:35:19 10° E visible
06 Oct - 07:09:35 10° NW 07:14:06 69° SW 07:18:57 10° SE daylight
06 Oct - 08:53:22 10° WNW 08:56:35 19° WSW 08:59:59 10° SSW daylight
06 Oct - 23:41:48 10° S 23:45:43 33° SE 23:49:39 10° ENE visible
07 Oct - 01:24:14 10° WSW 01:28:35 71° NNW 01:33:02 10° NE visible
07 Oct - 03:08:11 10° WNW 03:12:16 37° N 03:16:32 10° ENE visible
07 Oct - 04:51:59 10° NW 04:56:13 42° NNE 05:00:43 10° E visible
07 Oct - 06:35:11 10° NW 06:39:43 85° SW 06:44:37 10° SE visible
07 Oct - 08:18:40 10° WNW 08:22:24 24° WSW 08:26:22 10° S daylight
07 Oct - 23:07:55 10° S 23:11:30 25° ESE 23:15:05 10° ENE night (unlit)
08 Oct - 00:49:48 10° SW 00:54:09 86° NW 00:58:37 10° NE visible
08 Oct - 02:33:36 10° W 02:37:44 40° NNW 02:42:01 10° ENE visible
08 Oct - 04:17:31 10° WNW 04:21:41 39° NNE 04:26:06 10° E visible
08 Oct - 06:00:48 10° NW 06:05:19 79° NE 06:10:12 10° ESE visible
08 Oct - 07:44:06 10° WNW 07:48:11 32° WSW 07:52:33 10° S daylight
08 Oct - 22:34:15 10° SSE 22:37:19 19° ESE 22:40:24 10° ENE night (unlit)
09 Oct - 00:15:26 10° SW 00:19:47 76° SE 00:24:13 10° NE visible
09 Oct - 01:59:01 10° W 02:03:12 43° NNW 02:07:32 10° NE visible
09 Oct - 03:43:01 10° WNW 03:47:08 37° N 03:51:30 10° ENE visible
09 Oct - 05:26:24 10° NW 05:30:53 66° NNE 05:35:42 10° ESE visible
09 Oct - 07:09:36 10° WNW 07:13:54 41° SW 07:18:33 10° SSE daylight
09 Oct - 22:00:53 10° SE 22:03:11 14° ESE 22:05:29 10° E night (unlit)
09 Oct - 23:41:09 10° SSW 23:45:26 59° SE 23:49:48 10° NE night (unlit)
10 Oct - 01:24:27 10° W 01:28:41 49° NNW 01:33:05 10° NE visible
10 Oct - 03:08:30 10° WNW 03:12:36 36° N 03:16:53 10° ENE visible
10 Oct - 04:51:59 10° NW 04:56:25 56° NNE 05:01:10 10° ESE visible
10 Oct - 06:35:09 10° NW 06:39:36 52° SW 06:44:26 10° SSE visible
10 Oct - 08:19:32 10° W 08:21:54 14° WSW 08:24:21 10° SW daylight
10 Oct - 21:28:43 10° ESE 21:29:05 10° ESE 21:29:28 10° ESE night (unlit)
10 Oct - 23:06:59 10° SSW 23:11:08 45° SE 23:15:21 10° ENE night (unlit)
11 Oct - 00:49:55 10° WSW 00:54:12 57° NNW 00:58:39 10° NE visible
11 Oct - 02:33:56 10° WNW 02:38:02 36° N 02:42:19 10° ENE visible
11 Oct - 04:17:35 10° NW 04:21:56 48° NNE 04:26:35 10° E visible
11 Oct - 06:00:44 10° NW 06:05:17 67° SW 06:10:12 10° SE visible
11 Oct - 07:44:33 10° WNW 07:47:46 18° WSW 07:51:08 10° SSW daylight
11 Oct - 22:32:56 10° S 22:36:52 34° SE 22:40:52 10° ENE night (unlit)
